TimeCDT,TemperatureF,Dew PointF,Humidity,Sea Level PressureIn,VisibilityMPH,Wind Direction,Wind SpeedMPH,Gust SpeedMPH,PrecipitationIn,Events,Conditions,WindDirDegrees,DateUTC
12:53 AM,61.0,54.0,78,29.84,10.0,WNW,5.8,-,N/A,,Clear,290,2013-06-17 05:53:00
1:53 AM,60.1,54.0,80,29.84,10.0,West,5.8,-,N/A,,Scattered Clouds,280,2013-06-17 06:53:00
2:53 AM,59.0,55.0,87,29.85,10.0,WNW,5.8,-,N/A,,Scattered Clouds,290,2013-06-17 07:53:00
3:53 AM,57.9,54.0,87,29.86,10.0,WNW,3.5,-,N/A,,Scattered Clouds,300,2013-06-17 08:53:00
4:53 AM,57.9,54.0,87,29.86,10.0,NW,5.8,-,N/A,,Mostly Cloudy,310,2013-06-17 09:53:00
5:53 AM,57.0,55.0,93,29.88,10.0,NW,6.9,-,N/A,,Scattered Clouds,320,2013-06-17 10:53:00
6:53 AM,59.0,55.0,87,29.90,10.0,NNW,9.2,-,N/A,,Partly Cloudy,330,2013-06-17 11:53:00
7:53 AM,62.1,57.0,84,29.92,10.0,NNW,12.7,-,N/A,,Scattered Clouds,340,2013-06-17 12:53:00
8:11 AM,62.6,57.2,82,29.93,10.0,NNW,12.7,19.6,N/A,,Mostly Cloudy,340,2013-06-17 13:11:00
8:31 AM,62.6,57.2,82,29.93,10.0,NNW,11.5,-,N/A,,Scattered Clouds,340,2013-06-17 13:31:00
8:53 AM,64.9,59.0,81,29.94,10.0,NNW,11.5,-,N/A,,Mostly Cloudy,340,2013-06-17 13:53:00
9:53 AM,66.9,59.0,76,29.94,10.0,NNW,13.8,23.0,N/A,,Mostly Cloudy,340,2013-06-17 14:53:00
10:53 AM,68.0,60.1,76,29.95,10.0,North,17.3,-,N/A,,Mostly Cloudy,360,2013-06-17 15:53:00
11:53 AM,66.9,57.9,73,29.98,10.0,NNE,11.5,-,N/A,,Overcast,20,2013-06-17 16:53:00
12:53 PM,71.1,57.9,63,29.98,10.0,NNE,15.0,18.4,0.04,,Mostly Cloudy,30,2013-06-17 17:53:00
1:53 PM,73.9,55.0,52,29.98,10.0,NE,10.4,-,N/A,,Mostly Cloudy,50,2013-06-17 18:53:00
2:53 PM,75.9,54.0,46,29.97,10.0,NNE,11.5,18.4,N/A,,Mostly Cloudy,20,2013-06-17 19:53:00
3:53 PM,77.0,52.0,42,29.97,10.0,NE,11.5,18.4,N/A,,Mostly Cloudy,50,2013-06-17 20:53:00
4:53 PM,78.1,50.0,37,29.97,10.0,NE,12.7,27.6,N/A,,Mostly Cloudy,50,2013-06-17 21:53:00
5:53 PM,75.9,50.0,40,29.96,10.0,North,12.7,-,N/A,,Mostly Cloudy,360,2013-06-17 22:53:00
6:53 PM,75.0,48.9,40,29.97,10.0,North,13.8,-,N/A,,Mostly Cloudy,360,2013-06-17 23:53:00
7:53 PM,73.0,48.0,41,29.97,10.0,North,9.2,-,N/A,,Scattered Clouds,350,2013-06-18 00:53:00
8:53 PM,68.0,50.0,52,29.97,10.0,North,5.8,-,N/A,,Scattered Clouds,350,2013-06-18 01:53:00
9:53 PM,63.0,52.0,67,29.99,10.0,NW,3.5,-,N/A,,Scattered Clouds,320,2013-06-18 02:53:00
10:53 PM,63.0,55.0,75,30.01,10.0,SE,5.8,-,N/A,,Scattered Clouds,130,2013-06-18 03:53:00
11:53 PM,59.0,54.0,83,30.03,10.0,SSE,3.5,-,N/A,,Clear,160,2013-06-18 04:53:00